CW1084 Lusby MD US current weather conditions

sailwx.info

Wind from 119 at 0 knots gusting 7

Air temperature 31.7° C
Dewpoint 24.3° C

Last reported at 2020-Jul-11 20:09 UTC.
Time now 2020-Jul-11 21:01 UTC

Location: N 38°23' W 076°24'.
View on Google Maps.

See reports from other nearby stations

  
Tides and Currents Weather Stations Pressure Air Temp Water Temp Dewpoint Dewpoint Depression Visibility Wind Speed Wind Dir Waves Ship Positions
date/time (UTC)wind fromknots sea level pressurealtimeterstation pressurevisibilityair tempwater tempwave heightnotes
2020-Jul-11 20:09 119 0 gusting 7 31.7
2020-Jul-11 20:04 105 31.1
2020-Jul-11 19:59 104 31.1
2020-Jul-11 19:54 104 31.1
2020-Jul-11 19:49 104 1 gusting 6 31.1
2020-Jul-11 19:43 104 0 gusting 6 30.6
2020-Jul-11 19:38 101 30.6
2020-Jul-11 19:33 101 0 gusting 5 30.6
2020-Jul-11 19:28 101 1 gusting 6 31.1
2020-Jul-11 19:23 097 1 gusting 6 31.1
2020-Jul-11 19:18 124 0 gusting 5 31.7
2020-Jul-11 19:13 115 0 gusting 5 31.7
2020-Jul-11 19:08 096 1 gusting 6 31.7
2020-Jul-11 19:03 106 1 gusting 6 31.7
2020-Jul-11 18:58 114 0 gusting 6 31.7
2020-Jul-11 18:53 111 0 gusting 5 31.7
2020-Jul-11 18:48 112 31.7
2020-Jul-11 18:42 112 0 gusting 2 31.7
2020-Jul-11 18:37 112 0 gusting 3 31.7
2020-Jul-11 18:32 115 0 gusting 4 31.7
2020-Jul-11 18:27 112 31.7
2020-Jul-11 18:22 101 31.1
2020-Jul-11 18:17 101 31.1
2020-Jul-11 18:12 102 0 gusting 4 31.1
2020-Jul-11 18:07 101 0 gusting 4 31.7
2020-Jul-11 18:02 149 0 gusting 4 31.7
2020-Jul-11 17:57 150 0 gusting 4 31.1
2020-Jul-11 17:52 149 0 gusting 4 31.1
2020-Jul-11 17:47 154 0 gusting 6 31.1
2020-Jul-11 17:42 096 0 gusting 6 31.1
2020-Jul-11 17:37 153 0 gusting 4 31.1
2020-Jul-11 17:32 155 0 gusting 6 31.1
2020-Jul-11 17:27 126 0 gusting 6 31.1
2020-Jul-11 17:22 116 0 gusting 3 31.1
2020-Jul-11 17:17 116 30.6
2020-Jul-11 17:12 185 30.6
2020-Jul-11 17:07 185 30.0
2020-Jul-11 16:56 185 30.0
2020-Jul-11 16:51 185 29.4
2020-Jul-11 16:46 185 29.4
2020-Jul-11 16:41 185 30.0
2020-Jul-11 16:36 114 30.0
2020-Jul-11 16:31 260 29.4
2020-Jul-11 16:26 260 29.4
2020-Jul-11 16:21 259 29.4
2020-Jul-11 16:16 259 29.4
2020-Jul-11 16:11 259 0 gusting 3 28.9
2020-Jul-11 16:06 259 28.9
2020-Jul-11 16:00 258 28.3
2020-Jul-11 15:55 258 0 gusting 5 28.3
2020-Jul-11 15:51 259 0 gusting 5 27.8
2020-Jul-11 15:45 257 27.8
2020-Jul-11 15:40 259 0 gusting 2 27.2
2020-Jul-11 15:35 258 0 gusting 2 27.2
2020-Jul-11 15:30 256 0 gusting 3 27.2
2020-Jul-11 15:25 254 0 gusting 5 27.2
2020-Jul-11 15:19 249 0 gusting 5 27.2
2020-Jul-11 15:15 279 1 gusting 4 26.7
2020-Jul-11 15:09 280 0 gusting 4 26.7
2020-Jul-11 15:04 281 26.7
2020-Jul-11 14:59 281 26.7
2020-Jul-11 14:54 281 0 gusting 4 26.7
2020-Jul-11 14:49 281 1 gusting 4 26.7
2020-Jul-11 14:44 290 0 gusting 3 26.7
2020-Jul-11 14:38 262 1 gusting 5 26.7
2020-Jul-11 14:33 285 0 gusting 5 26.1
2020-Jul-11 14:28 253 26.1
2020-Jul-11 14:23 253 26.1
2020-Jul-11 14:18 254 26.1
2020-Jul-11 14:13 258 26.1
2020-Jul-11 14:08 257 26.1
2020-Jul-11 14:03 257 0 gusting 4 25.6
2020-Jul-11 13:58 262 0 gusting 4 25.6
2020-Jul-11 13:52 266 1 gusting 4 25.6
2020-Jul-11 13:47 163 1 gusting 4 25.6
2020-Jul-11 13:42 227 0 gusting 4 25.6
2020-Jul-11 13:37 225 0 gusting 6 25.6
2020-Jul-11 13:32 261 0 gusting 6 25.6
2020-Jul-11 13:27 272 1 gusting 4 25.0
2020-Jul-11 13:22 270 0 gusting 4 25.0
2020-Jul-11 13:17 237 0 gusting 4 25.0
2020-Jul-11 13:12 228 25.0
2020-Jul-11 13:07 240 0 gusting 4 25.0
2020-Jul-11 13:02 245 0 gusting 4 25.0
2020-Jul-11 12:57 291 0 gusting 4 25.0
2020-Jul-11 12:52 234 25.0
2020-Jul-11 12:47 233 0 gusting 3 25.0
2020-Jul-11 12:42 249 25.0
2020-Jul-11 12:37 196 25.0
2020-Jul-11 12:32 196 25.0
2020-Jul-11 12:26 287 25.0
2020-Jul-11 12:21 229 25.0
2020-Jul-11 12:16 229 0 gusting 3 25.0
2020-Jul-11 12:11 281 0 gusting 4 25.0
2020-Jul-11 12:06 280 0 gusting 4 25.0
2020-Jul-11 12:01 272 0 gusting 5 25.0
2020-Jul-11 11:56 272 1 gusting 5 25.0
2020-Jul-11 11:51 209 1 gusting 5 25.0
2020-Jul-11 11:46 299 1 gusting 6 25.0
2020-Jul-11 11:41 253 1 gusting 6 25.0
2020-Jul-11 11:36 248 1 gusting 6 24.4
2020-Jul-11 11:31 278 1 gusting 6 24.4
2020-Jul-11 11:26 227 1 gusting 6 24.4
2020-Jul-11 11:21 221 0 gusting 3 24.4
2020-Jul-11 11:15 221 1 gusting 5 24.4
2020-Jul-11 11:11 254 1 gusting 5 24.4
2020-Jul-11 11:05 245 0 gusting 4 24.4
2020-Jul-11 11:01 296 0 gusting 3 24.4
2020-Jul-11 10:56 277 24.4
2020-Jul-11 10:51 198 24.4
2020-Jul-11 10:45 199 24.4
2020-Jul-11 10:40 198 24.4
2020-Jul-11 10:35 173 24.4
2020-Jul-11 10:30 173 24.4
2020-Jul-11 10:25 173 24.4
2020-Jul-11 10:20 173 0 gusting 5 24.4
2020-Jul-11 10:14 177 24.4
2020-Jul-11 10:09 253 24.4
2020-Jul-11 10:04 253 24.4
2020-Jul-11 09:59 252 24.4
2020-Jul-11 09:54 254 24.4
2020-Jul-11 09:49 254 24.4
2020-Jul-11 09:44 253 24.4
2020-Jul-11 09:39 253 24.4
2020-Jul-11 09:34 253 24.4
2020-Jul-11 09:29 253 24.4
2020-Jul-11 09:23 253 24.4
2020-Jul-11 09:19 253 24.4
2020-Jul-11 09:13 253 24.4
2020-Jul-11 09:08 253 24.4
2020-Jul-11 09:03 253 24.4
2020-Jul-11 08:57 253 24.4
2020-Jul-11 08:52 254 24.4
2020-Jul-11 08:47 258 24.4
2020-Jul-11 08:42 257 24.4
2020-Jul-11 08:37 261 0 gusting 5 24.4
2020-Jul-11 08:33 261 0 gusting 5 24.4
2020-Jul-11 08:27 236 1 gusting 4 25.0
2020-Jul-11 08:22 275 1 gusting 4 25.0
2020-Jul-11 08:17 290 1 gusting 6 25.0
2020-Jul-11 08:12 298 1 gusting 6 25.0
2020-Jul-11 08:07 254 1 gusting 6 25.0
2020-Jul-11 08:01 261 1 gusting 6 25.0
2020-Jul-11 07:56 281 1 gusting 6 25.0
2020-Jul-11 07:51 278 1 gusting 6 25.0
2020-Jul-11 07:46 248 1 gusting 6 25.0
2020-Jul-11 07:41 281 1 gusting 6 25.0
2020-Jul-11 07:36 265 0 gusting 4 25.6
2020-Jul-11 07:31 265 25.6
2020-Jul-11 07:26 239 25.6
2020-Jul-11 07:21 239 0 gusting 5 25.6
2020-Jul-11 07:16 240 0 gusting 5 25.6
2020-Jul-11 07:11 245 0 gusting 5 25.6
2020-Jul-11 07:06 305 0 gusting 3 25.6
2020-Jul-11 07:00 315 0 gusting 2 25.6
2020-Jul-11 06:55 309 25.6
2020-Jul-11 06:51 311 26.1
2020-Jul-11 06:45 309 26.1
2020-Jul-11 06:40 309 26.1
2020-Jul-11 06:35 309 0 gusting 3 26.1
2020-Jul-11 06:30 325 0 gusting 4 26.1
2020-Jul-11 06:25 326 1 gusting 4 26.1
2020-Jul-11 06:20 198 0 gusting 3 26.1
2020-Jul-11 06:15 246 0 gusting 4 26.1
2020-Jul-11 06:10 257 2 gusting 6 26.7
2020-Jul-11 06:05 274 2 gusting 6 26.7
2020-Jul-11 06:00 270 2 gusting 6 26.7
2020-Jul-11 05:55 184 2 gusting 9 26.7
2020-Jul-11 05:50 279 3 gusting 9 26.7
2020-Jul-11 05:40 246 3 gusting 7 26.7
2020-Jul-11 05:35 271 3 gusting 8 26.7
2020-Jul-11 05:30 267 2 gusting 8 26.7
2020-Jul-11 05:20 204 1 gusting 6 26.7
2020-Jul-11 05:15 263 1 gusting 6 26.7
2020-Jul-11 05:05 284 1 gusting 6 26.7
2020-Jul-11 04:59 204 1 gusting 6 26.7
2020-Jul-11 04:54 311 0 gusting 6 26.1
2020-Jul-11 04:44 090 26.1
2020-Jul-11 04:39 190 26.1
2020-Jul-11 04:34 173 26.1
2020-Jul-11 04:29 180 26.1
2020-Jul-11 04:24 188 26.1
2020-Jul-11 04:19 215 26.1
2020-Jul-11 04:14 089 26.1
2020-Jul-11 04:09 149 26.1
2020-Jul-11 04:04 014 26.1
2020-Jul-11 03:59 014 26.1
2020-Jul-11 03:54 013 26.1
2020-Jul-11 03:48 080 26.1
2020-Jul-11 03:43 080 26.1
2020-Jul-11 03:38 080 26.1
2020-Jul-11 03:33 080 26.1
2020-Jul-11 03:28 080 26.7
2020-Jul-11 03:23 080 26.7
2020-Jul-11 03:17 080 26.7
2020-Jul-11 03:12 080 26.7
2020-Jul-11 03:07 080 26.7
2020-Jul-11 03:02 080 26.7
2020-Jul-11 02:57 080 26.7
2020-Jul-11 02:52 080 26.7
2020-Jul-11 02:47 081 26.7
2020-Jul-11 02:42 081 26.7
2020-Jul-11 02:36 081 26.7
2020-Jul-11 02:31 081 26.7
2020-Jul-11 02:26 081 26.7
2020-Jul-11 02:21 081 26.7
2020-Jul-11 02:16 080 26.7
2020-Jul-11 02:11 080 26.7
2020-Jul-11 02:06 081 26.7
2020-Jul-11 02:00 080 26.7
2020-Jul-11 01:55 081 26.7
2020-Jul-11 01:50 081 26.7
2020-Jul-11 01:45 082 26.7
2020-Jul-11 01:40 083 26.7
2020-Jul-11 01:35 084 26.7
2020-Jul-11 01:30 084 26.7
2020-Jul-11 01:25 084 26.7
2020-Jul-11 01:19 084 26.7
2020-Jul-11 01:14 084 26.7
2020-Jul-11 01:09 084 26.7
2020-Jul-11 01:04 084 26.7
2020-Jul-11 00:58 084 26.7
2020-Jul-11 00:53 084 27.2
2020-Jul-11 00:48 084 27.2
2020-Jul-11 00:43 084 27.2
2020-Jul-11 00:38 084 27.2
2020-Jul-11 00:33 084 27.2
2020-Jul-11 00:27 084 27.2
2020-Jul-11 00:22 084 27.2
2020-Jul-11 00:17 084 27.8
2020-Jul-11 00:12 084 27.8
2020-Jul-11 00:07 084 27.8
2020-Jul-11 00:02 084 27.8
2020-Jul-10 23:56 084 27.8
2020-Jul-10 23:51 084 27.8
2020-Jul-10 23:46 084 28.3
2020-Jul-10 23:41 084 28.3
2020-Jul-10 23:36 084 28.3
2020-Jul-10 23:30 084 28.3
2020-Jul-10 23:26 084 28.3
2020-Jul-10 23:20 084 28.9
2020-Jul-10 23:15 084 28.9
2020-Jul-10 23:10 084 28.9
2020-Jul-10 23:05 084 28.9
2020-Jul-10 23:00 084 28.9
2020-Jul-10 22:55 084 28.9
2020-Jul-10 22:50 084 28.9
2020-Jul-10 22:44 084 28.9
2020-Jul-10 22:39 084 29.4
2020-Jul-10 22:34 084 29.4
2020-Jul-10 22:29 084 29.4
2020-Jul-10 22:24 084 29.4
2020-Jul-10 22:19 084 30.0
2020-Jul-10 22:14 084 30.0
2020-Jul-10 22:09 084 30.6
2020-Jul-10 22:04 084 30.6
2020-Jul-10 21:58 084 30.6
2020-Jul-10 21:53 084 30.6
2020-Jul-10 21:48 084 0 gusting 6 30.6
2020-Jul-10 21:43 084 0 gusting 6 30.6
2020-Jul-10 21:38 087 0 gusting 5 31.1
2020-Jul-10 21:33 083 0 gusting 5 31.1
2020-Jul-10 21:28 082 0 gusting 4 31.1
2020-Jul-10 21:23 090 0 gusting 4 31.1
2020-Jul-10 21:18 266 0 gusting 6 31.1
2020-Jul-10 21:13 344 0 gusting 6 31.1
2020-Jul-10 21:08 030 0 gusting 3 31.1
2020-Jul-10 21:03 030 0 gusting 3 31.1
2020-Jul-10 20:58 022 31.1
2020-Jul-10 20:53 022 31.1
2020-Jul-10 20:48 021 0 gusting 2 31.1
2020-Jul-10 20:42 021 0 gusting 3 31.1
2020-Jul-10 20:37 017 0 gusting 3 31.1
2020-Jul-10 20:32 019 30.6
2020-Jul-10 20:27 020 0 gusting 5 30.6
2020-Jul-10 20:22 094 0 gusting 5 31.1
2020-Jul-10 20:17 069 0 gusting 5 31.1
2020-Jul-10 20:12 069 0 gusting 3 30.6
2020-Jul-10 20:07 070 0 gusting 6 30.6
2020-Jul-10 20:02 346 0 gusting 6 30.6
2020-Jul-10 19:57 080 0 gusting 4 30.6
2020-Jul-10 19:52 301 0 gusting 3 30.6
2020-Jul-10 19:47 351 30.6
2020-Jul-10 19:42 033 0 gusting 3 30.6
2020-Jul-10 19:36 302 0 gusting 2 30.6
2020-Jul-10 19:31 277 0 gusting 3 30.6
2020-Jul-10 19:27 271 0 gusting 4 30.6
2020-Jul-10 19:21 010 0 gusting 6 30.6
2020-Jul-10 19:16 083 0 gusting 6 30.6
2020-Jul-10 19:11 063 1 gusting 4 30.6
2020-Jul-10 19:06 272 1 gusting 5 30.0
2020-Jul-10 19:02 189 1 gusting 8 30.6
2020-Jul-10 18:56 327 1 gusting 12 30.6
2020-Jul-10 18:51 066 1 gusting 12 30.6
2020-Jul-10 18:46 032 1 gusting 9 30.6
2020-Jul-10 18:41 014 2 gusting 7 30.6
2020-Jul-10 18:36 339 1 gusting 12 30.6
2020-Jul-10 18:31 084 1 gusting 12 30.6
2020-Jul-10 18:26 042 2 gusting 10 30.6
2020-Jul-10 18:21 232 1 gusting 10 30.6
2020-Jul-10 18:16 018 1 gusting 6 30.6
2020-Jul-10 18:11 103 2 gusting 10 30.6
2020-Jul-10 18:06 067 2 gusting 10 30.0
2020-Jul-10 18:01 016 1 gusting 7 30.0
2020-Jul-10 17:56 111 2 gusting 7 30.0
2020-Jul-10 17:50 055 2 gusting 8 30.0
2020-Jul-10 17:46 098 1 gusting 8 30.0
2020-Jul-10 17:41 106 2 gusting 8 29.4
2020-Jul-10 17:35 086 2 gusting 6 29.4
2020-Jul-10 17:31 298 1 gusting 6 29.4
2020-Jul-10 17:26 253 1 gusting 6 29.4
2020-Jul-10 17:20 016 1 gusting 11 29.4
2020-Jul-10 17:15 355 2 gusting 11 29.4
2020-Jul-10 17:10 169 2 gusting 11 29.4
2020-Jul-10 17:05 034 2 gusting 11 29.4
2020-Jul-10 17:00 005 3 gusting 10 29.4
2020-Jul-10 16:55 123 2 gusting 9 29.4
2020-Jul-10 16:50 28.9
2020-Jul-10 16:45 288 1 gusting 7 28.9
2020-Jul-10 16:41 086 2 gusting 9 28.3
2020-Jul-10 16:35 017 3 gusting 10 28.3
2020-Jul-10 16:30 015 2 gusting 10 28.3
2020-Jul-10 16:25 28.3
2020-Jul-10 16:20 355 2 gusting 7 27.8
2020-Jul-10 16:15 328 2 gusting 10 27.8
2020-Jul-10 16:10 014 2 gusting 10 27.8
2020-Jul-10 16:05 355 2 gusting 8 27.8
2020-Jul-10 16:00 328 2 gusting 8 27.2
2020-Jul-10 15:55 149 2 gusting 8 27.2
2020-Jul-10 15:50 062 2 gusting 8 27.2
2020-Jul-10 15:45 025 2 gusting 6 27.2
2020-Jul-10 15:40 028 2 gusting 9 27.2
2020-Jul-10 15:35 239 2 gusting 9 26.7
2020-Jul-10 15:30 261 2 gusting 10 26.7
2020-Jul-10 15:25 225 1 gusting 10 26.7
2020-Jul-10 15:20 229 1 gusting 9 26.1
2020-Jul-10 15:15 344 2 gusting 9 26.1
2020-Jul-10 15:10 273 2 gusting 8 26.1
2020-Jul-10 15:05 332 1 gusting 8 26.1
2020-Jul-10 15:00 270 1 gusting 7 26.1
2020-Jul-10 14:55 025 1 gusting 9 26.1
2020-Jul-10 14:50 010 1 gusting 9 26.1
2020-Jul-10 14:45 264 1 gusting 7 26.1
2020-Jul-10 14:40 229 2 gusting 9 26.1
2020-Jul-10 14:30 26.1
2020-Jul-10 14:25 047 1 gusting 10 26.7
2020-Jul-10 14:20 344 1 gusting 10 26.7
2020-Jul-10 14:15 050 2 gusting 6 26.7
2020-Jul-10 14:05 331 2 gusting 11 26.7
2020-Jul-10 13:59 015 2 gusting 11 26.7
2020-Jul-10 13:55 209 2 gusting 11 26.7
2020-Jul-10 13:49 094 1 gusting 11 26.7
2020-Jul-10 13:44 103 1 gusting 6 26.7
2020-Jul-10 13:40 034 1 gusting 6 26.7
2020-Jul-10 13:34 279 1 gusting 6 26.7
2020-Jul-10 13:29 340 2 gusting 6 26.7
2020-Jul-10 13:24 279 2 gusting 7 26.7
2020-Jul-10 13:19 065 2 gusting 7 26.7
2020-Jul-10 13:14 198 1 gusting 7 26.1
2020-Jul-10 13:09 200 2 gusting 12 26.1
2020-Jul-10 13:04 069 2 gusting 12 26.1
2020-Jul-10 12:59 309 2 gusting 7 26.1
2020-Jul-10 12:54 084 1 gusting 7 25.6
2020-Jul-10 12:49 332 1 gusting 6 25.6
2020-Jul-10 12:44 013 1 gusting 7 25.6
2020-Jul-10 12:39 325 1 gusting 7 25.6
2020-Jul-10 12:34 266 1 gusting 9 25.6
2020-Jul-10 12:29 044 2 gusting 9 25.6
2020-Jul-10 12:24 134 2 gusting 13 25.6
2020-Jul-10 12:19 079 2 gusting 13 25.6
2020-Jul-10 12:14 103 2 gusting 8 25.6
2020-Jul-10 12:09 010 1 gusting 8 25.6
2020-Jul-10 12:04 144 1 gusting 13 25.6
2020-Jul-10 11:59 035 1 gusting 13 25.6
2020-Jul-10 11:54 192 1 gusting 8 25.0
2020-Jul-10 11:49 184 1 gusting 9 25.0
2020-Jul-10 11:44 053 1 gusting 9 25.0
2020-Jul-10 11:39 046 1 gusting 8 25.0
2020-Jul-10 11:34 355 1 gusting 7 25.0
2020-Jul-10 11:29 238 2 gusting 6 25.0
2020-Jul-10 11:24 355 2 gusting 6 25.0
2020-Jul-10 11:19 355 2 gusting 8 25.0
2020-Jul-10 11:14 355 1 gusting 8 25.0
2020-Jul-10 11:09 033 1 gusting 8 25.0
2020-Jul-10 11:04 079 2 gusting 11 25.0
2020-Jul-10 10:58 078 1 gusting 11 25.0
2020-Jul-10 10:54 038 0 gusting 6 25.0
2020-Jul-10 10:48 087 1 gusting 6 25.0
2020-Jul-10 10:43 227 1 gusting 7 25.0
2020-Jul-10 10:38 355 1 gusting 7 25.0
2020-Jul-10 10:33 067 1 gusting 7 25.0
2020-Jul-10 10:28 028 1 gusting 6 25.0
2020-Jul-10 10:23 355 1 gusting 8 25.0
2020-Jul-10 10:18 070 1 gusting 13 25.0
2020-Jul-10 10:13 095 1 gusting 13 25.0
2020-Jul-10 10:08 061 1 gusting 10 25.0
2020-Jul-10 10:03 105 1 gusting 10 25.0
2020-Jul-10 09:58 055 1 gusting 8 25.0
2020-Jul-10 09:53 083 1 gusting 6 25.0
2020-Jul-10 09:48 075 1 gusting 7 25.0
2020-Jul-10 09:43 187 1 gusting 7 25.0
2020-Jul-10 09:37 018 0 gusting 6 25.0
2020-Jul-10 09:33 024 1 gusting 8 25.0
2020-Jul-10 09:27 096 0 gusting 8 25.0
2020-Jul-10 09:22 097 0 gusting 6 25.0
2020-Jul-10 09:17 343 0 gusting 6 25.0
2020-Jul-10 09:11 068 1 gusting 6 25.0
2020-Jul-10 09:06 099 0 gusting 7 25.0
2020-Jul-10 09:01 101 0 gusting 7 25.0
2020-Jul-10 08:56 074 0 gusting 5 25.0
2020-Jul-10 08:51 271 0 gusting 6 25.0
2020-Jul-10 08:46 032 0 gusting 6 25.0
2020-Jul-10 08:41 032 0 gusting 6 25.0
2020-Jul-10 08:36 041 0 gusting 6 25.0
2020-Jul-10 08:30 061 0 gusting 6 25.0
2020-Jul-10 08:26 037 0 gusting 5 25.0
2020-Jul-10 08:20 078 25.0
2020-Jul-10 08:16 306 0 gusting 4 25.0
2020-Jul-10 08:10 340 0 gusting 4 25.0
2020-Jul-10 08:05 026 25.0
2020-Jul-10 08:00 026 0 gusting 6 25.0
2020-Jul-10 07:55 054 0 gusting 4 25.0
2020-Jul-10 07:50 057 0 gusting 4 24.4
2020-Jul-10 07:45 333 0 gusting 4 24.4
2020-Jul-10 07:40 027 24.4
2020-Jul-10 07:35 027 24.4
2020-Jul-10 07:29 082 0 gusting 6 24.4
2020-Jul-10 07:24 076 0 gusting 6 24.4
2020-Jul-10 07:19 049 24.4
2020-Jul-10 07:14 011 24.4
2020-Jul-10 07:09 010 24.4
2020-Jul-10 07:03 005 24.4
2020-Jul-10 06:58 331 24.4
2020-Jul-10 06:53 016 0 gusting 5 24.4
2020-Jul-10 06:48 063 0 gusting 4 24.4
2020-Jul-10 06:43 059 0 gusting 6 24.4
2020-Jul-10 06:38 053 0 gusting 6 25.0
2020-Jul-10 06:33 085 0 gusting 5 25.0
2020-Jul-10 06:28 088 0 gusting 6 25.0
2020-Jul-10 06:23 086 0 gusting 6 25.0
2020-Jul-10 06:18 085 1 gusting 6 25.0
2020-Jul-10 06:13 058 0 gusting 6 25.0
2020-Jul-10 06:08 082 0 gusting 6 25.0
2020-Jul-10 06:03 084 0 gusting 5 25.0
2020-Jul-10 05:58 083 0 gusting 6 25.0
2020-Jul-10 05:53 099 0 gusting 6 25.0
2020-Jul-10 05:47 067 25.0
2020-Jul-10 05:42 087 25.0
2020-Jul-10 05:38 087 0 gusting 5 25.0
2020-Jul-10 05:32 085 0 gusting 5 25.0
2020-Jul-10 05:27 085 25.0
2020-Jul-10 05:22 085 0 gusting 5 25.0
2020-Jul-10 05:17 085 0 gusting 5 25.0
2020-Jul-10 05:11 085 0 gusting 6 25.0
2020-Jul-10 05:06 085 0 gusting 6 25.0
2020-Jul-10 05:01 093 0 gusting 6 25.0
2020-Jul-10 04:56 094 0 gusting 6 25.0
2020-Jul-10 04:51 094 0 gusting 6 25.0
2020-Jul-10 04:45 105 0 gusting 3 25.6
2020-Jul-10 04:40 102 25.6
2020-Jul-10 04:35 095 0 gusting 6 25.6
2020-Jul-10 04:30 131 0 gusting 7 25.6
2020-Jul-10 04:25 074 0 gusting 7 25.6
2020-Jul-10 04:15 082 1 gusting 6 25.6
2020-Jul-10 04:10 088 1 gusting 6 25.6
2020-Jul-10 04:05 106 0 gusting 6 25.6
2020-Jul-10 03:59 121 1 gusting 6 25.6
2020-Jul-10 03:54 123 0 gusting 6 25.6
2020-Jul-10 03:49 096 0 gusting 5 25.6
2020-Jul-10 03:44 044 0 gusting 7 25.6
2020-Jul-10 03:39 086 1 gusting 7 25.6
2020-Jul-10 03:34 116 1 gusting 6 25.6
2020-Jul-10 03:29 123 1 gusting 7 26.1
2020-Jul-10 03:23 105 1 gusting 7 26.1
2020-Jul-10 03:18 098 26.1
2020-Jul-10 03:13 121 0 gusting 6 26.1
2020-Jul-10 03:08 122 0 gusting 7 26.1
2020-Jul-10 03:03 111 0 gusting 7 26.1
2020-Jul-10 02:58 084 0 gusting 5 26.1
2020-Jul-10 02:53 092 0 gusting 5 26.1
2020-Jul-10 02:48 096 0 gusting 5 26.7
2020-Jul-10 02:43 093 1 gusting 5 26.7
2020-Jul-10 02:38 096 1 gusting 6 26.7
2020-Jul-10 02:33 120 1 gusting 7 26.7
2020-Jul-10 02:28 076 0 gusting 7 26.7
2020-Jul-10 02:23 106 0 gusting 5 26.7
2020-Jul-10 02:18 083 0 gusting 5 26.7
2020-Jul-10 02:12 082 0 gusting 6 26.7
2020-Jul-10 02:07 083 0 gusting 6 26.7
2020-Jul-10 02:02 084 0 gusting 8 26.7
2020-Jul-10 01:57 138 1 gusting 8 26.7
2020-Jul-10 01:52 105 0 gusting 6 27.2
2020-Jul-10 01:47 094 0 gusting 6 27.2
2020-Jul-10 01:42 082 0 gusting 5 27.2
2020-Jul-10 01:37 082 0 gusting 6 27.2
2020-Jul-10 01:32 082 0 gusting 6 27.2
2020-Jul-10 01:27 083 0 gusting 5 27.2
2020-Jul-10 01:22 087 0 gusting 5 27.2
2020-Jul-10 01:17 077 0 gusting 5 27.2
2020-Jul-10 01:12 118 27.2
2020-Jul-10 01:07 128 0 gusting 6 27.2
2020-Jul-10 01:02 128 0 gusting 6 27.2
2020-Jul-10 00:56 088 1 gusting 6 27.8
2020-Jul-10 00:52 088 1 gusting 6 27.8
2020-Jul-10 00:46 108 0 gusting 6 27.8
2020-Jul-10 00:41 086 0 gusting 6 27.8
2020-Jul-10 00:36 090 1 gusting 6 27.8
2020-Jul-10 00:30 082 0 gusting 6 27.8
2020-Jul-10 00:26 125 0 gusting 4 28.3
2020-Jul-10 00:21 094 0 gusting 6 28.3
2020-Jul-10 00:15 086 1 gusting 6 28.3
2020-Jul-10 00:11 127 1 gusting 6 28.3
2020-Jul-10 00:05 128 0 gusting 6 28.3
2020-Jul-10 00:00 092 0 gusting 4 28.3
2020-Jul-09 23:55 121 0 gusting 5 28.3
2020-Jul-09 23:50 088 1 gusting 6 28.9
2020-Jul-09 23:45 085 1 gusting 6 28.9
2020-Jul-09 23:40 076 0 gusting 6 28.9
2020-Jul-09 23:35 086 0 gusting 9 28.9
2020-Jul-09 23:30 144 0 gusting 9 28.9
2020-Jul-09 23:25 090 0 gusting 7 28.9
2020-Jul-09 23:20 126 0 gusting 7 28.9
2020-Jul-09 23:10 114 2 gusting 8 28.9
2020-Jul-09 23:05 092 2 gusting 8 28.9
2020-Jul-09 22:59 098 0 gusting 7 28.9
2020-Jul-09 22:55 129 0 gusting 4 29.4
2020-Jul-09 22:50 133 0 gusting 7 29.4
2020-Jul-09 22:44 121 1 gusting 7 29.4
2020-Jul-09 22:39 097 1 gusting 7 29.4
2020-Jul-09 22:34 128 2 gusting 7 29.4
2020-Jul-09 22:29 132 2 gusting 6 29.4
2020-Jul-09 22:24 122 2 gusting 7 29.4
2020-Jul-09 22:19 108 2 gusting 8 30.0
2020-Jul-09 22:14 109 1 gusting 8 30.0
2020-Jul-09 22:09 065 0 gusting 8 30.0
2020-Jul-09 22:04 123 0 gusting 6 30.0
2020-Jul-09 21:59 119 1 gusting 5 30.0
2020-Jul-09 21:53 121 2 gusting 7 30.6
2020-Jul-09 21:49 148 1 gusting 7 30.6
2020-Jul-09 21:44 129 30.6
2020-Jul-09 21:39 30.6
2020-Jul-09 21:28 094 30.6
2020-Jul-09 21:23 094 31.1
2020-Jul-09 21:18 082 31.1
2020-Jul-09 21:13 082 31.1
2020-Jul-09 21:08 082 31.1
2020-Jul-09 21:03 082 31.1